[[{"header":{"parameterUnit":"m.s-1","parameterCategory":1,"la1":30.2991,"la2":30.254,"lo1":-89.0895,"lo2":-89.0444,"dy":0.0017,"dx":0.0017,"nx":28,"ny":28,"refTime":"2024-02-24T03:00:00:Z","depth":0,"parameterNumber":2,"parameterNumberName":"U-component_of_WINDS"},"data":[0,0,0,0,0,0,0,0,0,0,0,0,0,0,0,0,0,0,0,0,0,0,0,0,0,0,0,0,0,0,0,0,0,0,0,0,0,0,0,0,0,0,0,0,0,0,0,0,0,0,0,0,0,0,0,0,0,0,1.7316,1.7316,0,1.736,1.7361,1.7361,1.7332,1.7331,1.7329,1.7328,1.7375,1.7378,1.738,0,0,0,0,0,0,0,0,0,0,0,0,0,1.7206,1.7209,1.7315,1.7316,1.7317,1.736,1.7361,1.7362,1.7332,1.733,1.7329,1.7327,1.7375,1.7378,1.7381,0,0,0,0,0,0,0,0,0,0,0,0,0,1.7253,1.7209,1.7315,1.7307,1.7307,1.736,1.7361,1.7362,1.7333,1.733,1.7328,1.7326,1.7374,1.7377,1.7381,1.7445,0,0,1.7393,1.7394,0,0,0,0,0,0,0,0,1.725,1.7257,1.7308,1.7308,1.7308,1.7338,1.734,1.739,1.7333,1.7323,1.7328,1.7325,1.7365,1.7369,1.7382,1.7448,1.745,1.7393,1.7395,1.7397,1.7398,0,0,0,0,0,0,0,1.7247,1.7255,1.7333,1.7309,1.7308,1.7302,1.7306,1.7349,1.7355,1.7324,1.7322,1.7327,1.7364,1.7379,1.7383,1.745,1.7393,1.7396,1.7399,1.74,1.7573,1.7575,0,0,0,0,0,0,1.7244,1.7252,1.7332,1.7335,1.7273,1.7306,1.731,1.7331,1.7354,1.7356,1.7329,1.7326,1.7373,1.7379,1.7385,1.7463,1.7397,1.74,1.7403,1.7571,1.7573,1.7576,0,0,0,0,0,0,1.7242,1.7252,1.733,1.7293,1.7302,1.731,1.7333,1.7333,1.7347,1.7358,1.7359,1.7342,1.7372,1.7379,1.7431,1.7464,1.7402,1.7406,1.7568,1.7571,1.7575,1.762,0,0,0,0,0,0,1.7239,1.7251,1.7275,1.7294,1.7305,1.7375,1.7335,1.7335,1.7353,1.7349,1.7371,1.7373,1.7371,1.7425,1.7435,1.7468,1.7409,1.7565,1.7569,1.7574,1.7615,1.7624,1.7632,0,0,0,0,0,1.7235,1.7286,1.7276,1.7286,1.7335,1.7377,1.7383,1.7379,1.7356,1.7381,1.7388,1.7372,1.7459,1.7431,1.7441,1.7476,1.7563,1.7568,1.7573,1.7611,1.7622,1.7632,0,0,0,0,0,0,1.7271,1.7288,1.7278,1.7336,1.7355,1.7372,1.7403,1.7391,1.7418,1.7413,1.7408,1.7413,1.7467,1.7477,1.7445,1.7541,1.7507,1.7515,1.7533,1.7543,1.7551,1.7549,1.7412,0,0,0,0,0,1.7285,1.7318,1.7331,1.7381,1.7391,1.7395,1.7414,1.7409,1.7429,1.7437,1.7449,1.7469,1.7502,1.7523,1.7553,1.7616,1.7621,1.7646,1.7654,1.7661,1.7668,1.7704,1.7715,1.7593,1.7593,1.7593,0,0,1.7316,1.7329,1.735,1.7389,1.7403,1.7438,1.7403,1.744,1.7466,1.7443,1.7493,1.7502,1.7525,1.7583,1.7609,1.7593,1.7702,1.7667,1.7673,1.7676,1.771,1.7722,1.7732,1.7597,1.7596,1.7595,0,0,1.7389,1.7402,1.7446,1.7461,1.7484,1.7486,1.7497,1.7516,1.7521,1.7571,1.7555,1.7586,1.7641,1.7658,1.7674,1.7756,1.7743,1.7766,1.781,1.7845,1.7855,1.7863,1.7894,1.7905,1.7772,1.7772,1.7772,0,1.7425,1.7476,1.747,1.7509,1.7527,1.7508,1.7553,1.7568,1.76,1.7613,1.7594,1.7664,1.7677,1.774,1.7761,1.7774,1.7787,1.7764,1.7853,1.7862,1.787,1.7899,1.7911,1.7775,1.7775,1.7775,1.7774,0,1.7519,1.7554,1.7587,1.7618,1.764,1.7682,1.7683,1.7706,1.77,1.7705,1.7757,1.7773,1.7807,1.7821,1.7815,1.7884,1.7873,1.7854,1.782,1.7884,1.7912,1.7923,1.7779,1.7778,1.7777,1.7777,0,0,1.7616,1.7644,1.7656,1.767,1.7694,1.7722,1.7764,1.7797,1.7817,1.7839,1.7875,1.7923,1.7906,1.7924,1.792,1.7951,1.8017,1.7928,1.7929,1.7945,1.8095,1.8111,1.8124,1.8008,1.801,1.8011,1.8094,0,1.7692,1.7764,1.7761,1.7829,1.7863,1.7846,1.7882,1.7902,1.7908,1.7938,1.7945,1.7979,1.7953,1.7964,1.7994,1.8002,1.8047,1.7996,1.8042,1.8044,1.8039,1.8138,1.8154,1.8231,1.8104,1.8106,1.8108,0,1.779,1.7816,1.7888,1.7908,1.7922,1.7955,1.7986,1.8014,1.8036,1.8039,1.806,1.8051,1.8095,1.806,1.812,1.8086,1.8105,1.8112,1.8115,1.812,1.8081,1.8147,1.8255,1.8267,1.8124,1.8123,1.8122,0,1.7856,1.7909,1.7959,1.7972,1.7996,1.802,1.8031,1.8051,1.8072,1.8099,1.8112,1.8144,1.8162,1.8187,1.8188,1.8162,1.825,1.8214,1.8255,1.8255,1.8275,1.8274,1.8389,1.8285,1.8284,1.8284,1.8284,0,1.7942,1.7987,1.7989,1.802,1.8071,1.8067,1.8117,1.8126,1.8144,1.8177,1.8164,1.8196,1.8194,1.8227,1.8228,1.8279,1.8287,1.8291,1.8291,1.8293,1.8293,1.8306,1.8301,1.8287,1.8287,1.8286,1.8286,0,1.8025,1.8028,1.8081,1.81,1.8106,1.8142,1.8159,1.8189,1.8194,1.8237,1.8246,1.8255,1.8292,1.8295,1.8339,1.834,1.8403,1.8396,1.8395,1.8395,1.8436,1.8432,1.8564,1.8582,1.8465,1.8466,1.8467,0,1.808,1.8114,1.8137,1.8158,1.8171,1.8205,1.8226,1.8224,1.8246,1.8275,1.8302,1.8338,1.8367,1.8429,1.8439,1.8473,1.8468,1.8512,1.8473,1.8475,1.8471,1.8469,1.8474,1.852,1.8521,1.8522,1.8523,0,1.8179,1.8179,1.8209,1.8241,1.8266,1.8291,1.8314,1.8332,1.8333,1.8359,1.8397,1.842,1.8465,1.8502,1.8535,1.8548,1.8537,1.8535,1.8547,1.855,1.8549,1.8552,1.8418,1.8533,1.8532,1.8531,1.853,1.853,1.825,1.8281,1.8302,1.8336,1.8354,1.8376,1.8405,1.8414,1.8446,1.8482,1.8479,1.8522,1.8545,1.8588,1.8604,1.8638,1.8623,1.8639,1.8644,1.8648,1.8653,1.8542,1.8644,1.8644,1.8643,1.8643,1.8643,0,1.835,1.8362,1.8394,1.8427,1.8455,1.8441,1.8466,1.8491,1.8529,1.855,1.8579,1.8624,1.866,1.8674,1.871,1.8735,1.8731,1.8744,1.8743,1.8747,1.8664,1.8651,1.8747,1.8747,1.8747,1.8747,1.8747,1.8747,1.8405,1.8456,1.8459,1.8518,1.8531,1.8573,1.8589,1.861,1.8627,1.8678,1.8708,1.8716,1.8735,1.8772,1.8805,1.8808,1.8823,1.8839,1.884,1.8763,1.8752,1.8742,1.873,1.8842,1.8842,1.8921,1.8921,1.8922]},{"header":{"parameterUnit":"m.s-1","parameterCategory":1,"la1":30.2991,"la2":30.254,"lo1":-89.0895,"lo2":-89.0444,"dy":0.0017,"dx":0.0017,"nx":28,"ny":28,"refTime":"2024-02-24T03:00:00:Z","depth":0,"parameterNumber":3,"parameterNumberName":"V-component_of_WINDS"},"data":[0,0,0,0,0,0,0,0,0,0,0,0,0,0,0,0,0,0,0,0,0,0,0,0,0,0,0,0,0,0,0,0,0,0,0,0,0,0,0,0,0,0,0,0,0,0,0,0,0,0,0,0,0,0,0,0,0,0,-1.9815,-1.9815,0,-1.9844,-1.9844,-1.9844,-1.9864,-1.9864,-1.9865,-1.9865,-1.9892,-1.9893,-1.9893,0,0,0,0,0,0,0,0,0,0,0,0,0,-1.9773,-1.9774,-1.9815,-1.9815,-1.9815,-1.9844,-1.9844,-1.9845,-1.9864,-1.9864,-1.9865,-1.9865,-1.9892,-1.9893,-1.9893,0,0,0,0,0,0,0,0,0,0,0,0,0,-1.9796,-1.9774,-1.9815,-1.9829,-1.983,-1.9844,-1.9844,-1.9845,-1.9864,-1.9864,-1.9865,-1.9865,-1.9892,-1.9892,-1.9893,-1.9894,0,0,-1.9896,-1.9896,0,0,0,0,0,0,0,0,-1.9794,-1.9797,-1.9826,-1.9828,-1.9829,-1.9851,-1.984,-1.9861,-1.9864,-1.9851,-1.9865,-1.9865,-1.9878,-1.988,-1.9885,-1.9896,-1.9897,-1.9896,-1.9897,-1.9897,-1.9897,0,0,0,0,0,0,0,-1.9793,-1.9796,-1.9826,-1.9827,-1.9829,-1.9833,-1.9836,-1.9844,-1.9863,-1.9852,-1.9854,-1.9857,-1.9879,-1.9884,-1.9886,-1.9897,-1.9896,-1.9897,-1.9897,-1.9898,-1.991,-1.991,0,0,0,0,0,0,-1.9789,-1.9795,-1.9825,-1.9827,-1.9812,-1.9833,-1.9837,-1.9844,-1.9863,-1.9866,-1.9857,-1.9858,-1.9882,-1.9885,-1.9887,-1.9889,-1.9897,-1.9898,-1.9898,-1.991,-1.991,-1.991,0,0,0,0,0,0,-1.9789,-1.9792,-1.9824,-1.9811,-1.9816,-1.9834,-1.9841,-1.9844,-1.9849,-1.9866,-1.987,-1.9859,-1.9883,-1.9885,-1.9892,-1.989,-1.9898,-1.9899,-1.991,-1.991,-1.991,-1.9893,0,0,0,0,0,0,-1.9787,-1.9792,-1.9793,-1.9811,-1.9816,-1.983,-1.9841,-1.9844,-1.9851,-1.9853,-1.9869,-1.9872,-1.9883,-1.9891,-1.9893,-1.9891,-1.99,-1.9911,-1.991,-1.991,-1.9894,-1.9893,-1.9891,0,0,0,0,0,-1.9786,-1.9786,-1.9793,-1.9796,-1.9818,-1.983,-1.9833,-1.9846,-1.9851,-1.9852,-1.9863,-1.9871,-1.989,-1.9892,-1.9894,-1.9893,-1.9911,-1.991,-1.991,-1.9895,-1.9893,-1.9891,0,0,0,0,0,0,-1.9766,-1.9789,-1.9796,-1.9803,-1.9814,-1.9833,-1.9835,-1.9843,-1.9853,-1.9854,-1.987,-1.9873,-1.9878,-1.9886,-1.9887,-1.9895,-1.9901,-1.9902,-1.9889,-1.9887,-1.9886,-1.9883,-1.99,0,0,0,0,0,-1.9763,-1.9771,-1.979,-1.9794,-1.98,-1.9816,-1.9822,-1.9831,-1.9843,-1.9848,-1.9859,-1.987,-1.9878,-1.9883,-1.9892,-1.9896,-1.9899,-1.9896,-1.9894,-1.9893,-1.9893,-1.9895,-1.9893,-1.9908,-1.9908,-1.9908,0,0,-1.9756,-1.9769,-1.9773,-1.9791,-1.9801,-1.9808,-1.982,-1.9827,-1.9833,-1.9849,-1.9856,-1.9865,-1.9878,-1.9883,-1.9886,-1.989,-1.9889,-1.9892,-1.9891,-1.9892,-1.9894,-1.9893,-1.9891,-1.9908,-1.9908,-1.9908,0,0,-1.9746,-1.9758,-1.9762,-1.9772,-1.9787,-1.9798,-1.9799,-1.9817,-1.9823,-1.9831,-1.9843,-1.985,-1.9864,-1.9872,-1.9879,-1.9873,-1.9881,-1.9875,-1.9867,-1.9869,-1.9868,-1.9867,-1.9864,-1.9863,-1.9875,-1.9875,-1.9875,0,-1.9735,-1.9747,-1.9763,-1.977,-1.9777,-1.9793,-1.9797,-1.9806,-1.9822,-1.9827,-1.9831,-1.9849,-1.9859,-1.9866,-1.9865,-1.987,-1.9871,-1.9873,-1.9867,-1.9866,-1.9865,-1.9863,-1.9862,-1.9874,-1.9874,-1.9874,-1.9874,0,-1.9733,-1.9741,-1.9743,-1.976,-1.9767,-1.9773,-1.9788,-1.9794,-1.9803,-1.9813,-1.982,-1.9833,-1.9844,-1.9847,-1.9855,-1.9855,-1.9857,-1.9864,-1.9871,-1.9863,-1.9861,-1.986,-1.9873,-1.9873,-1.9873,-1.9874,0,0,-1.9711,-1.9737,-1.9737,-1.9745,-1.9763,-1.977,-1.9776,-1.9788,-1.9792,-1.9803,-1.9808,-1.9819,-1.9826,-1.9833,-1.9842,-1.9844,-1.9838,-1.9851,-1.9851,-1.9848,-1.9838,-1.9833,-1.9832,-1.9844,-1.9844,-1.9844,-1.9837,0,-1.9704,-1.9716,-1.9731,-1.9738,-1.9746,-1.9761,-1.9766,-1.9777,-1.9787,-1.9794,-1.9805,-1.9813,-1.9821,-1.9825,-1.9828,-1.9838,-1.9837,-1.9839,-1.9848,-1.9848,-1.9844,-1.9831,-1.9825,-1.9818,-1.9837,-1.9837,-1.9836,0,-1.9697,-1.9708,-1.9717,-1.9734,-1.9738,-1.9742,-1.9754,-1.9761,-1.9774,-1.9781,-1.9789,-1.98,-1.9806,-1.9813,-1.9821,-1.9823,-1.9827,-1.9833,-1.9833,-1.9834,-1.9841,-1.983,-1.9816,-1.9814,-1.9835,-1.9836,-1.9836,0,-1.968,-1.9697,-1.9704,-1.971,-1.9731,-1.9734,-1.9742,-1.9756,-1.9762,-1.9772,-1.9776,-1.9787,-1.9792,-1.98,-1.9813,-1.9817,-1.982,-1.9828,-1.9825,-1.9824,-1.9824,-1.9824,-1.9809,-1.9828,-1.9828,-1.9828,-1.9828,0,-1.967,-1.9674,-1.9697,-1.9701,-1.9706,-1.9722,-1.9726,-1.9736,-1.9748,-1.9754,-1.9767,-1.9772,-1.9789,-1.9796,-1.9806,-1.9811,-1.9814,-1.9819,-1.9822,-1.9818,-1.9817,-1.982,-1.9821,-1.9828,-1.9828,-1.9828,-1.9828,0,-1.9651,-1.9667,-1.9675,-1.9694,-1.9699,-1.9702,-1.9718,-1.9722,-1.9733,-1.974,-1.9743,-1.976,-1.9768,-1.9782,-1.9795,-1.9802,-1.9805,-1.9809,-1.9801,-1.9802,-1.9798,-1.9798,-1.9785,-1.9783,-1.9803,-1.9803,-1.9803,0,-1.9643,-1.9647,-1.9667,-1.9672,-1.9681,-1.9689,-1.9696,-1.9712,-1.9718,-1.9733,-1.9736,-1.9746,-1.9754,-1.9768,-1.978,-1.979,-1.9794,-1.9789,-1.9796,-1.9792,-1.9793,-1.9793,-1.9793,-1.9787,-1.9787,-1.9787,-1.9786,0,-1.9628,-1.9636,-1.9645,-1.9657,-1.9665,-1.9675,-1.9686,-1.9689,-1.9708,-1.9714,-1.9724,-1.9731,-1.9744,-1.9753,-1.9765,-1.9773,-1.9782,-1.9784,-1.9784,-1.9779,-1.9774,-1.9776,-1.9796,-1.9784,-1.9785,-1.9785,-1.9785,-1.9785,-1.9614,-1.9618,-1.9633,-1.9643,-1.9653,-1.9663,-1.9668,-1.968,-1.9688,-1.9701,-1.971,-1.9718,-1.9731,-1.9748,-1.9755,-1.9762,-1.9766,-1.9766,-1.9766,-1.9765,-1.9763,-1.9774,-1.9764,-1.9764,-1.9764,-1.9764,-1.9764,0,-1.9599,-1.9609,-1.9618,-1.9633,-1.9641,-1.9651,-1.9663,-1.9669,-1.9677,-1.9688,-1.9697,-1.9708,-1.9717,-1.9731,-1.9741,-1.9744,-1.9748,-1.9746,-1.9745,-1.9747,-1.9759,-1.9758,-1.9742,-1.9742,-1.9742,-1.9742,-1.9742,-1.9742,-1.9592,-1.9599,-1.9608,-1.962,-1.963,-1.964,-1.9646,-1.9655,-1.9664,-1.9676,-1.9684,-1.9693,-1.9705,-1.9717,-1.9725,-1.9729,-1.9732,-1.9728,-1.9733,-1.9744,-1.9746,-1.9748,-1.9747,-1.9729,-1.9729,-1.972,-1.972,-1.972]}]]